Check out our new BloomSky Weather System.

Active alerts

Houston, TX
  Details for Houston, TX Dense Fog Advisory


Thunder radar  blitzortung!


Rain radar more information rain snow radar


Visit our other weather sites:

Template documentation
and downloads

And another site



Weather Underground History page Text

Daily Summary for April 26, 2017 Units:  English    Metric   Both
« Previous Day
Next Day »
Daily Weekly Monthly Yearly Custom
  High: Low: Average:
Temperature: 91.9 °F 66.2 °F 79.3 °F
Dew Point: 76.8 °F 52.3 °F 69.3 °F
Humidity: 87 % 29 % 73 %
Wind Speed: 15.0 mph 0.0 mph 6.1 mph
Wind Gust: 22.0 mph - -
Wind:- - SSW
Pressure: 29.77 in 29.48 in -
Precipitation: 0.00 in    
Historical Graphs
 
 
Tabular Data for April 26, 2017
Time Temperature Dew Point Pressure Wind Wind Speed Wind Gust Humidity Rainfall Rate (Hourly)
00:00 76.8 °F 72.0 °F 29.57 in SE 7.0 mph 12.0 mph 85 % 0.00 in
00:05 76.8 °F 72.0 °F 29.57 in South 4.0 mph 11.0 mph 85 % 0.00 in
00:10 76.8 °F 72.0 °F 29.57 in ESE 5.0 mph 12.0 mph 85 % 0.00 in
00:15 76.8 °F 72.0 °F 29.57 in SSE 5.0 mph 12.0 mph 85 % 0.00 in
00:20 76.8 °F 72.0 °F 29.57 in SE 6.0 mph 15.0 mph 85 % 0.00 in
00:25 76.8 °F 72.0 °F 29.57 in South 4.0 mph 15.0 mph 85 % 0.00 in
00:30 76.8 °F 72.0 °F 29.57 in SSW 5.0 mph 15.0 mph 85 % 0.00 in
00:35 76.8 °F 72.0 °F 29.57 in South 4.0 mph 11.0 mph 85 % 0.00 in
00:40 76.8 °F 72.0 °F 29.57 in SSE 4.0 mph 10.0 mph 85 % 0.00 in
00:45 76.8 °F 72.0 °F 29.57 in SE 5.0 mph 11.0 mph 85 % 0.00 in
00:50 76.8 °F 72.0 °F 29.57 in South 3.0 mph 12.0 mph 85 % 0.00 in
00:55 76.8 °F 72.0 °F 29.56 in SSE 3.0 mph 12.0 mph 85 % 0.00 in
01:00 76.8 °F 72.0 °F 29.56 in South 6.0 mph 12.0 mph 85 % 0.00 in
01:05 76.8 °F 72.0 °F 29.56 in South 5.0 mph 13.0 mph 85 % 0.00 in
01:10 76.8 °F 72.0 °F 29.55 in SE 5.0 mph 13.0 mph 85 % 0.00 in
01:15 76.8 °F 72.0 °F 29.55 in ESE 5.0 mph 13.0 mph 85 % 0.00 in
01:20 76.8 °F 72.0 °F 29.55 in SSE 5.0 mph 12.0 mph 85 % 0.00 in
01:25 76.8 °F 72.0 °F 29.55 in SSW 4.0 mph 12.0 mph 85 % 0.00 in
01:30 76.8 °F 72.0 °F 29.54 in ESE 5.0 mph 12.0 mph 85 % 0.00 in
01:35 76.8 °F 72.0 °F 29.54 in SSE 13.0 mph 13.0 mph 85 % 0.00 in
01:36 76.8 °F 72.0 °F 29.54 in ESE 8.0 mph 13.0 mph 85 % 0.00 in
01:41 76.8 °F 72.0 °F 29.54 in SE 7.0 mph 15.0 mph 85 % 0.00 in
01:46 76.8 °F 72.0 °F 29.54 in SE 7.0 mph 15.0 mph 85 % 0.00 in
01:51 76.6 °F 72.1 °F 29.53 in SW 6.0 mph 15.0 mph 86 % 0.00 in
01:56 76.6 °F 72.1 °F 29.53 in ESE 9.0 mph 14.0 mph 86 % 0.00 in
02:01 76.6 °F 72.1 °F 29.53 in SSE 6.0 mph 14.0 mph 86 % 0.00 in
02:06 76.5 °F 72.0 °F 29.53 in SSE 8.0 mph 14.0 mph 86 % 0.00 in
02:11 76.5 °F 72.0 °F 29.52 in SE 9.0 mph 11.0 mph 86 % 0.00 in
02:16 76.5 °F 72.0 °F 29.52 in SE 6.0 mph 13.0 mph 86 % 0.00 in
02:21 76.5 °F 72.0 °F 29.52 in SE 5.0 mph 13.0 mph 86 % 0.00 in
02:26 76.5 °F 72.0 °F 29.52 in SSE 6.0 mph 14.0 mph 86 % 0.00 in
02:31 76.5 °F 72.0 °F 29.52 in ESE 11.0 mph 14.0 mph 86 % 0.00 in
02:36 76.5 °F 72.0 °F 29.51 in South 5.0 mph 14.0 mph 86 % 0.00 in
02:41 76.5 °F 72.0 °F 29.52 in SSE 6.0 mph 14.0 mph 86 % 0.00 in
02:46 76.5 °F 72.0 °F 29.51 in SE 10.0 mph 13.0 mph 86 % 0.00 in
02:51 76.5 °F 72.0 °F 29.52 in SSW 9.0 mph 15.0 mph 86 % 0.00 in
02:56 76.5 °F 72.0 °F 29.52 in South 5.0 mph 15.0 mph 86 % 0.00 in
03:01 76.5 °F 72.0 °F 29.52 in SE 4.0 mph 15.0 mph 86 % 0.00 in
03:06 76.5 °F 72.3 °F 29.52 in SSE 8.0 mph 12.0 mph 87 % 0.00 in
03:11 76.5 °F 72.3 °F 29.51 in SE 6.0 mph 13.0 mph 87 % 0.00 in
03:16 76.5 °F 72.3 °F 29.50 in SSE 6.0 mph 14.0 mph 87 % 0.00 in
03:21 76.5 °F 72.3 °F 29.50 in SSE 9.0 mph 16.0 mph 87 % 0.00 in
03:26 76.5 °F 72.3 °F 29.50 in ESE 15.0 mph 16.0 mph 87 % 0.00 in
03:31 76.5 °F 72.3 °F 29.50 in SSE 10.0 mph 16.0 mph 87 % 0.00 in
03:36 76.5 °F 72.3 °F 29.50 in SSE 6.0 mph 15.0 mph 87 % 0.00 in
03:41 76.3 °F 72.1 °F 29.50 in SSE 4.0 mph 15.0 mph 87 % 0.00 in
03:46 76.5 °F 72.3 °F 29.49 in SE 5.0 mph 15.0 mph 87 % 0.00 in
03:51 76.5 °F 72.3 °F 29.49 in SSE 5.0 mph 15.0 mph 87 % 0.00 in
03:56 76.5 °F 72.3 °F 29.49 in SE 11.0 mph 13.0 mph 87 % 0.00 in
04:01 76.5 °F 72.3 °F 29.49 in SE 5.0 mph 17.0 mph 87 % 0.00 in
04:06 76.5 °F 72.3 °F 29.50 in SE 6.0 mph 17.0 mph 87 % 0.00 in
04:11 76.5 °F 72.3 °F 29.49 in South 8.0 mph 17.0 mph 87 % 0.00 in
04:16 76.5 °F 72.3 °F 29.50 in South 12.0 mph 15.0 mph 87 % 0.00 in
04:21 76.5 °F 72.3 °F 29.50 in South 4.0 mph 15.0 mph 87 % 0.00 in
04:26 76.5 °F 72.3 °F 29.50 in SSE 6.0 mph 15.0 mph 87 % 0.00 in
04:31 76.3 °F 72.1 °F 29.50 in South 6.0 mph 13.0 mph 87 % 0.00 in
04:36 76.5 °F 72.3 °F 29.49 in ESE 6.0 mph 12.0 mph 87 % 0.00 in
04:41 76.5 °F 72.3 °F 29.50 in South 5.0 mph 12.0 mph 87 % 0.00 in
04:46 76.5 °F 72.3 °F 29.49 in SE 7.0 mph 11.0 mph 87 % 0.00 in
04:51 76.5 °F 72.3 °F 29.49 in SSE 9.0 mph 11.0 mph 87 % 0.00 in
04:56 76.5 °F 72.0 °F 29.49 in SSE 9.0 mph 14.0 mph 86 % 0.00 in
05:01 76.5 °F 72.0 °F 29.49 in SE 9.0 mph 19.0 mph 86 % 0.00 in
05:06 76.5 °F 72.3 °F 29.49 in SE 6.0 mph 19.0 mph 87 % 0.00 in
05:11 76.5 °F 72.0 °F 29.49 in ESE 10.0 mph 19.0 mph 86 % 0.00 in
05:17 76.5 °F 72.0 °F 29.49 in SE 5.0 mph 14.0 mph 86 % 0.00 in
05:22 76.5 °F 72.0 °F 29.49 in SE 5.0 mph 15.0 mph 86 % 0.00 in
05:27 76.5 °F 72.0 °F 29.49 in SSW 5.0 mph 17.0 mph 86 % 0.00 in
05:32 76.5 °F 72.0 °F 29.49 in SSE 3.0 mph 17.0 mph 86 % 0.00 in
05:37 76.5 °F 72.0 °F 29.49 in SW 5.0 mph 17.0 mph 86 % 0.00 in
05:42 76.5 °F 71.6 °F 29.49 in SSE 8.0 mph 13.0 mph 85 % 0.00 in
05:47 76.5 °F 71.6 °F 29.49 in South 5.0 mph 15.0 mph 85 % 0.00 in
05:52 76.5 °F 71.6 °F 29.49 in East 12.0 mph 15.0 mph 85 % 0.00 in
05:57 76.5 °F 71.6 °F 29.49 in SSE 6.0 mph 15.0 mph 85 % 0.00 in
06:02 76.5 °F 71.6 °F 29.49 in SE 6.0 mph 12.0 mph 85 % 0.00 in
06:07 76.5 °F 71.6 °F 29.48 in SE 5.0 mph 16.0 mph 85 % 0.00 in
06:12 76.5 °F 71.6 °F 29.48 in SSE 8.0 mph 16.0 mph 85 % 0.00 in
06:17 76.5 °F 71.6 °F 29.48 in SE 6.0 mph 16.0 mph 85 % 0.00 in
06:22 76.5 °F 72.0 °F 29.48 in SW 6.0 mph 16.0 mph 86 % 0.00 in
06:27 76.5 °F 72.0 °F 29.49 in South 5.0 mph 12.0 mph 86 % 0.00 in
06:32 76.3 °F 71.8 °F 29.49 in SSW 4.0 mph 12.0 mph 86 % 0.00 in
06:37 76.3 °F 71.8 °F 29.49 in ENE 7.0 mph 11.0 mph 86 % 0.00 in
06:42 76.3 °F 71.8 °F 29.49 in South 12.0 mph 12.0 mph 86 % 0.00 in
06:47 76.5 °F 72.0 °F 29.49 in South 5.0 mph 15.0 mph 86 % 0.00 in
06:52 76.5 °F 72.0 °F 29.49 in SSE 12.0 mph 15.0 mph 86 % 0.00 in
06:57 76.5 °F 71.6 °F 29.49 in SE 7.0 mph 15.0 mph 85 % 0.00 in
07:02 76.5 °F 71.6 °F 29.49 in South 9.0 mph 13.0 mph 85 % 0.00 in
07:07 76.5 °F 71.6 °F 29.49 in SE 10.0 mph 15.0 mph 85 % 0.00 in
07:12 76.5 °F 72.0 °F 29.49 in SE 5.0 mph 15.0 mph 86 % 0.00 in
07:17 76.5 °F 72.0 °F 29.49 in SSE 7.0 mph 15.0 mph 86 % 0.00 in
07:22 76.5 °F 72.0 °F 29.49 in SE 8.0 mph 15.0 mph 86 % 0.00 in
07:27 76.6 °F 72.1 °F 29.50 in SE 9.0 mph 16.0 mph 86 % 0.00 in
07:32 76.6 °F 71.8 °F 29.50 in South 11.0 mph 16.0 mph 85 % 0.00 in
07:37 76.6 °F 71.8 °F 29.50 in SSE 9.0 mph 16.0 mph 85 % 0.00 in
07:42 76.6 °F 71.8 °F 29.50 in SE 14.0 mph 16.0 mph 85 % 0.00 in
07:47 76.8 °F 72.0 °F 29.50 in South 7.0 mph 16.0 mph 85 % 0.00 in
07:52 76.8 °F 72.0 °F 29.50 in SSE 8.0 mph 14.0 mph 85 % 0.00 in
07:57 76.8 °F 72.0 °F 29.50 in South 7.0 mph 18.0 mph 85 % 0.00 in
08:02 77.0 °F 72.1 °F 29.50 in South 8.0 mph 18.0 mph 85 % 0.00 in
08:07 77.0 °F 72.1 °F 29.50 in SSE 9.0 mph 18.0 mph 85 % 0.00 in
08:12 77.2 °F 72.3 °F 29.49 in SSE 6.0 mph 14.0 mph 85 % 0.00 in
08:17 77.2 °F 72.0 °F 29.49 in South 10.0 mph 14.0 mph 84 % 0.00 in
08:22 77.4 °F 72.1 °F 29.50 in SE 6.0 mph 15.0 mph 84 % 0.00 in
08:27 77.4 °F 72.1 °F 29.50 in SE 11.0 mph 15.0 mph 84 % 0.00 in
08:32 77.4 °F 72.5 °F 29.50 in SE 8.0 mph 18.0 mph 85 % 0.00 in
08:37 77.4 °F 72.5 °F 29.50 in SSE 5.0 mph 18.0 mph 85 % 0.00 in
08:42 77.5 °F 72.3 °F 29.51 in SE 6.0 mph 18.0 mph 84 % 0.00 in
08:47 77.5 °F 72.7 °F 29.51 in SE 8.0 mph 14.0 mph 85 % 0.00 in
08:49 77.5 °F 72.3 °F 29.51 in SE 5.0 mph 14.0 mph 84 % 0.00 in
08:54 77.5 °F 72.3 °F 29.51 in SE 6.0 mph 15.0 mph 84 % 0.00 in
08:55 77.5 °F 72.3 °F 29.51 in SSE 8.0 mph 15.0 mph 84 % 0.00 in
09:00 77.5 °F 72.3 °F 29.52 in SE 4.0 mph 15.0 mph 84 % 0.00 in
09:05 77.5 °F 72.7 °F 29.52 in ESE 8.0 mph 14.0 mph 85 % 0.00 in
09:10 77.5 °F 72.7 °F 29.52 in SSW 14.0 mph 14.0 mph 85 % 0.00 in
09:15 77.5 °F 72.7 °F 29.53 in SSE 4.0 mph 14.0 mph 85 % 0.00 in
09:20 77.5 °F 72.3 °F 29.53 in SE 10.0 mph 14.0 mph 84 % 0.00 in
09:25 78.1 °F 73.2 °F 29.54 in SW 4.0 mph 14.0 mph 85 % 0.00 in
09:30 78.1 °F 72.5 °F 29.55 in SW 4.0 mph 11.0 mph 83 % 0.00 in
09:35 78.1 °F 72.1 °F 29.56 in SW 3.0 mph 11.0 mph 82 % 0.00 in
09:40 78.1 °F 72.5 °F 29.56 in West 2.0 mph 11.0 mph 83 % 0.00 in
09:45 77.9 °F 72.3 °F 29.56 in SSE 1.0 mph 11.0 mph 83 % 0.00 in
09:50 78.1 °F 72.5 °F 29.56 in South 3.0 mph 6.0 mph 83 % 0.00 in
09:55 78.1 °F 72.1 °F 29.57 in South 3.0 mph 7.0 mph 82 % 0.00 in
10:00 78.1 °F 72.1 °F 29.57 in South 3.0 mph 7.0 mph 82 % 0.00 in
10:05 77.9 °F 72.7 °F 29.57 in SW 2.0 mph 9.0 mph 84 % 0.00 in
10:10 77.7 °F 72.9 °F 29.55 in South 4.0 mph 9.0 mph 85 % 0.00 in
10:15 77.7 °F 73.2 °F 29.55 in SSE 3.0 mph 9.0 mph 86 % 0.00 in
10:20 78.4 °F 73.9 °F 29.55 in South 4.0 mph 7.0 mph 86 % 0.00 in
10:25 79.3 °F 74.1 °F 29.55 in South 4.0 mph 7.0 mph 84 % 0.00 in
10:30 79.7 °F 73.8 °F 29.55 in SSE 7.0 mph 11.0 mph 82 % 0.00 in
10:35 80.2 °F 73.9 °F 29.55 in SSE 4.0 mph 12.0 mph 81 % 0.00 in
10:40 80.8 °F 73.6 °F 29.55 in SSE 6.0 mph 12.0 mph 79 % 0.00 in
10:45 81.0 °F 73.8 °F 29.55 in South 8.0 mph 14.0 mph 79 % 0.00 in
10:50 81.3 °F 73.4 °F 29.55 in SSW 12.0 mph 14.0 mph 77 % 0.00 in
10:55 81.9 °F 74.3 °F 29.55 in South 6.0 mph 14.0 mph 78 % 0.00 in
11:00 82.0 °F 74.1 °F 29.55 in South 4.0 mph 14.0 mph 77 % 0.00 in
11:05 82.4 °F 74.1 °F 29.55 in South 6.0 mph 14.0 mph 76 % 0.00 in
11:10 82.6 °F 74.7 °F 29.55 in SSW 7.0 mph 12.0 mph 77 % 0.00 in
11:15 82.4 °F 73.8 °F 29.55 in SSE 8.0 mph 14.0 mph 75 % 0.00 in
11:20 82.4 °F 74.1 °F 29.55 in SE 4.0 mph 14.0 mph 76 % 0.00 in
11:25 82.6 °F 73.8 °F 29.55 in ESE 10.0 mph 14.0 mph 75 % 0.00 in
11:30 82.8 °F 73.9 °F 29.55 in SSW 7.0 mph 15.0 mph 75 % 0.00 in
11:35 82.6 °F 74.3 °F 29.55 in South 8.0 mph 15.0 mph 76 % 0.00 in
11:40 82.8 °F 73.9 °F 29.55 in SSE 3.0 mph 15.0 mph 75 % 0.00 in
11:45 82.6 °F 73.8 °F 29.55 in SSE 4.0 mph 14.0 mph 75 % 0.00 in
11:50 82.0 °F 73.8 °F 29.55 in SE 6.0 mph 11.0 mph 76 % 0.00 in
11:55 81.9 °F 73.6 °F 29.55 in SSW 8.0 mph 12.0 mph 76 % 0.00 in
12:00 81.7 °F 73.8 °F 29.55 in South 7.0 mph 12.0 mph 77 % 0.00 in
12:05 81.7 °F 73.8 °F 29.55 in South 3.0 mph 12.0 mph 77 % 0.00 in
12:10 81.7 °F 73.8 °F 29.55 in SSW 8.0 mph 11.0 mph 77 % 0.00 in
12:15 81.9 °F 73.9 °F 29.55 in SSW 7.0 mph 11.0 mph 77 % 0.00 in
12:20 82.6 °F 74.3 °F 29.55 in SSW 4.0 mph 11.0 mph 76 % 0.00 in
12:25 83.1 °F 74.3 °F 29.55 in South 4.0 mph 11.0 mph 75 % 0.00 in
12:30 83.7 °F 74.1 °F 29.54 in SSW 5.0 mph 13.0 mph 73 % 0.00 in
12:35 83.8 °F 74.7 °F 29.54 in SW 9.0 mph 15.0 mph 74 % 0.00 in
12:40 84.4 °F 74.3 °F 29.54 in ESE 6.0 mph 15.0 mph 72 % 0.00 in
12:46 84.0 °F 73.9 °F 29.54 in South 8.0 mph 18.0 mph 72 % 0.00 in
12:51 83.7 °F 74.1 °F 29.53 in SE 7.0 mph 18.0 mph 73 % 0.00 in
12:56 83.7 °F 74.5 °F 29.54 in SE 2.0 mph 18.0 mph 74 % 0.00 in
13:01 84.0 °F 74.5 °F 29.54 in SW 5.0 mph 16.0 mph 73 % 0.00 in
13:06 84.0 °F 74.5 °F 29.53 in SSE 6.0 mph 14.0 mph 73 % 0.00 in
13:11 83.8 °F 74.3 °F 29.53 in ESE 8.0 mph 12.0 mph 73 % 0.00 in
13:16 83.8 °F 74.7 °F 29.53 in SSW 4.0 mph 12.0 mph 74 % 0.00 in
13:21 84.0 °F 74.5 °F 29.53 in South 4.0 mph 12.0 mph 73 % 0.00 in
13:26 84.6 °F 75.0 °F 29.53 in SSW 4.0 mph 12.0 mph 73 % 0.00 in
13:31 84.4 °F 74.3 °F 29.53 in South 1.0 mph 12.0 mph 72 % 0.00 in
13:36 84.4 °F 75.2 °F 29.52 in South 10.0 mph 13.0 mph 74 % 0.00 in
13:41 84.9 °F 75.2 °F 29.52 in SW 5.0 mph 13.0 mph 73 % 0.00 in
13:46 85.5 °F 75.0 °F 29.52 in SSW 7.0 mph 15.0 mph 71 % 0.00 in
13:51 85.6 °F 75.2 °F 29.52 in SSW 6.0 mph 15.0 mph 71 % 0.00 in
13:56 86.2 °F 75.7 °F 29.52 in SW 4.0 mph 15.0 mph 71 % 0.00 in
14:01 86.0 °F 75.0 °F 29.52 in SSW 5.0 mph 12.0 mph 70 % 0.00 in
14:06 85.8 °F 75.4 °F 29.52 in West 7.0 mph 12.0 mph 71 % 0.00 in
14:11 86.0 °F 75.6 °F 29.52 in ESE 10.0 mph 14.0 mph 71 % 0.00 in
14:16 85.8 °F 75.4 °F 29.52 in SSE 4.0 mph 15.0 mph 71 % 0.00 in
14:21 86.4 °F 75.4 °F 29.52 in SW 5.0 mph 15.0 mph 70 % 0.00 in
14:26 86.2 °F 75.7 °F 29.52 in SSW 5.0 mph 15.0 mph 71 % 0.00 in
14:31 86.2 °F 75.7 °F 29.52 in SSW 8.0 mph 13.0 mph 71 % 0.00 in
14:36 86.2 °F 75.7 °F 29.51 in SE 3.0 mph 14.0 mph 71 % 0.00 in
14:41 86.2 °F 76.5 °F 29.51 in ESE 5.0 mph 15.0 mph 73 % 0.00 in
14:46 86.7 °F 76.1 °F 29.51 in South 7.0 mph 15.0 mph 71 % 0.00 in
14:51 87.1 °F 76.1 °F 29.51 in SSE 4.0 mph 15.0 mph 70 % 0.00 in
14:56 87.6 °F 75.4 °F 29.50 in South 11.0 mph 12.0 mph 67 % 0.00 in
15:01 88.2 °F 76.3 °F 29.50 in ESE 2.0 mph 12.0 mph 68 % 0.00 in
15:06 88.3 °F 76.8 °F 29.50 in SE 3.0 mph 11.0 mph 69 % 0.00 in
15:11 88.0 °F 75.6 °F 29.50 in South 6.0 mph 12.0 mph 67 % 0.00 in
15:16 88.3 °F 75.9 °F 29.50 in SSW 8.0 mph 12.0 mph 67 % 0.00 in
15:21 88.0 °F 76.1 °F 29.50 in SSE 8.0 mph 12.0 mph 68 % 0.00 in
15:26 88.3 °F 75.6 °F 29.50 in Calm   12.0 mph 66 % 0.00 in
15:31 89.1 °F 76.3 °F 29.50 in Calm   12.0 mph 66 % 0.00 in
15:36 89.1 °F 74.8 °F 29.50 in WSW 3.0 mph 12.0 mph 63 % 0.00 in
15:41 88.9 °F 76.1 °F 29.50 in SSW 9.0 mph 12.0 mph 66 % 0.00 in
15:46 89.1 °F 75.7 °F 29.49 in SSE 4.0 mph 12.0 mph 65 % 0.00 in
15:51 89.2 °F 75.0 °F 29.49 in SSE 2.0 mph 11.0 mph 63 % 0.00 in
15:56 89.2 °F 75.0 °F 29.50 in SSE 2.0 mph 11.0 mph 63 % 0.00 in
16:01 89.1 °F 75.7 °F 29.49 in SSW 6.0 mph 11.0 mph 65 % 0.00 in
16:06 88.7 °F 75.0 °F 29.49 in SSW 6.0 mph 11.0 mph 64 % 0.00 in
16:11 89.1 °F 75.2 °F 29.49 in West 2.0 mph 10.0 mph 64 % 0.00 in
16:16 89.8 °F 73.6 °F 29.48 in SSW 7.0 mph 10.0 mph 59 % 0.00 in
16:22 90.0 °F 74.7 °F 29.48 in SW 3.0 mph 10.0 mph 61 % 0.00 in
16:27 89.8 °F 73.6 °F 29.49 in SW 2.0 mph 10.0 mph 59 % 0.00 in
16:32 89.4 °F 73.8 °F 29.48 in SSW 1.0 mph 10.0 mph 60 % 0.00 in
16:37 89.4 °F 74.1 °F 29.48 in NW 2.0 mph 7.0 mph 61 % 0.00 in
16:42 89.4 °F 73.8 °F 29.49 in SSW 3.0 mph 7.0 mph 60 % 0.00 in
16:47 89.1 °F 73.9 °F 29.49 in South 3.0 mph 7.0 mph 61 % 0.00 in
16:52 88.9 °F 73.8 °F 29.49 in SSE 3.0 mph 7.0 mph 61 % 0.00 in
16:57 88.9 °F 74.1 °F 29.49 in SSW 2.0 mph 7.0 mph 62 % 0.00 in
17:02 89.8 °F 75.0 °F 29.49 in WSW 3.0 mph 7.0 mph 62 % 0.00 in
17:07 90.3 °F 74.5 °F 29.49 in SSW 2.0 mph 8.0 mph 60 % 0.00 in
17:12 90.9 °F 73.6 °F 29.49 in SW 4.0 mph 8.0 mph 57 % 0.00 in
17:17 91.2 °F 71.1 °F 29.49 in WSW 3.0 mph 8.0 mph 52 % 0.00 in
17:22 91.9 °F 71.2 °F 29.49 in WSW 3.0 mph 6.0 mph 51 % 0.00 in
17:27 91.9 °F 66.2 °F 29.49 in SSE 3.0 mph 10.0 mph 43 % 0.00 in
17:32 91.6 °F 64.6 °F 29.50 in WNW 5.0 mph 11.0 mph 41 % 0.00 in
17:37 91.0 °F 56.1 °F 29.50 in WNW 6.0 mph 16.0 mph 31 % 0.00 in
17:42 91.0 °F 55.2 °F 29.50 in NNW 3.0 mph 16.0 mph 30 % 0.00 in
17:47 91.0 °F 54.3 °F 29.50 in NW 10.0 mph 16.0 mph 29 % 0.00 in
17:52 90.5 °F 62.2 °F 29.51 in NW 4.0 mph 21.0 mph 39 % 0.00 in
17:57 88.5 °F 65.1 °F 29.52 in NW 11.0 mph 22.0 mph 46 % 0.00 in
18:02 87.6 °F 64.9 °F 29.52 in NNW 13.0 mph 22.0 mph 47 % 0.00 in
18:07 87.3 °F 65.1 °F 29.53 in NNW 7.0 mph 22.0 mph 48 % 0.00 in
18:12 86.7 °F 64.0 °F 29.53 in West 4.0 mph 22.0 mph 47 % 0.00 in
18:17 86.5 °F 63.9 °F 29.53 in NW 6.0 mph 17.0 mph 47 % 0.00 in
18:22 86.2 °F 63.5 °F 29.53 in NW 7.0 mph 17.0 mph 47 % 0.00 in
18:27 86.0 °F 63.5 °F 29.53 in WNW 5.0 mph 17.0 mph 47 % 0.00 in
18:32 85.3 °F 63.3 °F 29.54 in NW 7.0 mph 19.0 mph 48 % 0.00 in
18:37 84.9 °F 63.0 °F 29.54 in West 14.0 mph 19.0 mph 48 % 0.00 in
18:42 84.6 °F 62.8 °F 29.55 in NW 7.0 mph 19.0 mph 48 % 0.00 in
18:47 84.2 °F 62.4 °F 29.55 in WNW 6.0 mph 18.0 mph 48 % 0.00 in
18:52 84.0 °F 62.2 °F 29.55 in West 6.0 mph 17.0 mph 48 % 0.00 in
18:57 83.8 °F 62.1 °F 29.55 in NW 7.0 mph 14.0 mph 48 % 0.00 in
19:02 83.7 °F 61.9 °F 29.56 in NNW 6.0 mph 15.0 mph 48 % 0.00 in
19:07 83.3 °F 61.5 °F 29.56 in NNW 7.0 mph 15.0 mph 48 % 0.00 in
19:12 82.8 °F 61.7 °F 29.56 in NNW 4.0 mph 15.0 mph 49 % 0.00 in
19:17 82.2 °F 62.2 °F 29.56 in WNW 10.0 mph 14.0 mph 51 % 0.00 in
19:22 82.0 °F 62.1 °F 29.57 in NNW 4.0 mph 14.0 mph 51 % 0.00 in
19:24 81.9 °F 62.4 °F 29.57 in NW 5.0 mph 14.0 mph 52 % 0.00 in
19:29 81.3 °F 63.1 °F 29.57 in NW 7.0 mph 14.0 mph 54 % 0.00 in
19:34 80.8 °F 63.1 °F 29.57 in WNW 9.0 mph 13.0 mph 55 % 0.00 in
19:39 80.1 °F 62.4 °F 29.58 in NNW 7.0 mph 15.0 mph 55 % 0.00 in
19:44 79.7 °F 63.1 °F 29.58 in West 5.0 mph 15.0 mph 57 % 0.00 in
19:49 79.2 °F 63.1 °F 29.59 in NNW 7.0 mph 15.0 mph 58 % 0.00 in
19:54 78.4 °F 63.0 °F 29.60 in WNW 6.0 mph 15.0 mph 59 % 0.00 in
19:59 77.9 °F 62.4 °F 29.60 in NW 5.0 mph 15.0 mph 59 % 0.00 in
20:04 77.4 °F 62.4 °F 29.61 in NW 9.0 mph 15.0 mph 60 % 0.00 in
20:09 76.8 °F 62.4 °F 29.62 in NW 7.0 mph 15.0 mph 61 % 0.00 in
20:14 76.5 °F 62.4 °F 29.62 in NW 6.0 mph 14.0 mph 62 % 0.00 in
20:19 75.7 °F 61.3 °F 29.62 in NW 7.0 mph 15.0 mph 61 % 0.00 in
20:24 75.6 °F 61.2 °F 29.64 in NW 6.0 mph 18.0 mph 61 % 0.00 in
20:29 75.0 °F 61.2 °F 29.64 in WSW 2.0 mph 18.0 mph 62 % 0.00 in
20:34 74.8 °F 61.0 °F 29.65 in NW 7.0 mph 18.0 mph 62 % 0.00 in
20:39 74.5 °F 60.6 °F 29.65 in WNW 15.0 mph 18.0 mph 62 % 0.00 in
20:44 74.1 °F 59.7 °F 29.66 in NNW 8.0 mph 18.0 mph 61 % 0.00 in
20:49 73.9 °F 60.1 °F 29.67 in NW 7.0 mph 18.0 mph 62 % 0.00 in
20:55 73.8 °F 59.9 °F 29.67 in NW 4.0 mph 18.0 mph 62 % 0.00 in
21:00 73.6 °F 59.7 °F 29.68 in NW 8.0 mph 18.0 mph 62 % 0.00 in
21:05 73.0 °F 58.8 °F 29.68 in North 9.0 mph 17.0 mph 61 % 0.00 in
21:10 72.9 °F 58.1 °F 29.69 in NW 5.0 mph 17.0 mph 60 % 0.00 in
21:15 72.5 °F 57.7 °F 29.69 in West 7.0 mph 17.0 mph 60 % 0.00 in
21:20 72.3 °F 57.7 °F 29.69 in NW 3.0 mph 14.0 mph 60 % 0.00 in
21:25 72.1 °F 57.6 °F 29.70 in NNE 5.0 mph 14.0 mph 60 % 0.00 in
21:30 72.0 °F 57.4 °F 29.70 in NNW 8.0 mph 12.0 mph 60 % 0.00 in
21:35 71.8 °F 57.2 °F 29.70 in NNW 3.0 mph 12.0 mph 60 % 0.00 in
21:40 71.8 °F 57.2 °F 29.71 in NW 3.0 mph 11.0 mph 60 % 0.00 in
21:45 71.6 °F 57.4 °F 29.71 in WNW 4.0 mph 10.0 mph 61 % 0.00 in
21:50 71.4 °F 57.2 °F 29.72 in NW 3.0 mph 9.0 mph 61 % 0.00 in
21:55 71.1 °F 56.8 °F 29.72 in NW 5.0 mph 9.0 mph 61 % 0.00 in
22:00 70.9 °F 57.2 °F 29.72 in NNW 4.0 mph 9.0 mph 62 % 0.00 in
22:05 70.7 °F 56.7 °F 29.72 in NW 4.0 mph 8.0 mph 61 % 0.00 in
22:10 70.5 °F 56.5 °F 29.73 in West 7.0 mph 9.0 mph 61 % 0.00 in
22:15 70.3 °F 56.3 °F 29.73 in NW 2.0 mph 9.0 mph 61 % 0.00 in
22:20 70.2 °F 56.5 °F 29.73 in NW 5.0 mph 11.0 mph 62 % 0.00 in
22:25 70.0 °F 55.9 °F 29.73 in WNW 6.0 mph 11.0 mph 61 % 0.00 in
22:30 69.6 °F 55.9 °F 29.74 in NW 4.0 mph 11.0 mph 62 % 0.00 in
22:35 69.4 °F 55.9 °F 29.74 in North 5.0 mph 10.0 mph 62 % 0.00 in
22:40 69.3 °F 55.8 °F 29.74 in NW 2.0 mph 10.0 mph 62 % 0.00 in
22:45 69.1 °F 55.9 °F 29.75 in NW 4.0 mph 10.0 mph 63 % 0.00 in
22:50 68.7 °F 55.6 °F 29.75 in NNW 3.0 mph 10.0 mph 63 % 0.00 in
22:55 68.5 °F 54.5 °F 29.75 in NW 8.0 mph 11.0 mph 61 % 0.00 in
23:00 68.4 °F 53.4 °F 29.75 in North 12.0 mph 16.0 mph 59 % 0.00 in
23:05 68.2 °F 53.2 °F 29.75 in NW 9.0 mph 16.0 mph 59 % 0.00 in
23:10 68.2 °F 53.2 °F 29.75 in NW 6.0 mph 16.0 mph 59 % 0.00 in
23:15 67.8 °F 52.9 °F 29.75 in NW 4.0 mph 13.0 mph 59 % 0.00 in
23:20 67.6 °F 53.2 °F 29.75 in NNW 5.0 mph 13.0 mph 60 % 0.00 in
23:25 67.5 °F 52.7 °F 29.76 in NW 4.0 mph 14.0 mph 59 % 0.00 in
23:30 67.3 °F 52.5 °F 29.76 in NE 8.0 mph 14.0 mph 59 % 0.00 in
23:35 67.1 °F 52.7 °F 29.76 in NW 9.0 mph 14.0 mph 60 % 0.00 in
23:40 66.9 °F 52.5 °F 29.76 in NW 7.0 mph 13.0 mph 60 % 0.00 in
23:45 66.7 °F 52.3 °F 29.76 in NNW 10.0 mph 12.0 mph 60 % 0.00 in
23:50 66.6 °F 52.7 °F 29.77 in NW 4.0 mph 13.0 mph 61 % 0.00 in
23:55 66.2 °F 52.9 °F 29.77 in NW 4.0 mph 14.0 mph 62 % 0.00 in
Spring, Texas: Villages of Bridgestone
Compliments of Weather Underground - 2.75 mb

Script developed by  Jim McMurry - jmcmurry@mwt.net Adapted for the template by  Wim van der Kuil - Leuven-Template.eu

You find our weather info also at:

UK Metoffice

WeatherCloud

Weather Underground

Mid-South Weather Network

AWEKAS

Citizen Weather Observer Program (CWOP)

HAMweather, WeatherForYou, PWS Weather

Equipment we use:

Weather-station
Davis Vantage Vue

Weather-program
Meteohub

Weather-server
Debian 7.9 x86 (Guest)

Provider
DreamHost

Davis Vantage Vue

Meteohub

Debian 7.9 x86 (Guest)

DreamHost